Wind_Speed
13 15 16 14 14 14 13 13 14 14 14 15 15 16 17 18 20 21 23 24 25 26 27 28 28 29 29 30 31 31 32 33 35 35 36 36 37 37 38 38 38 38 38 38 37 36 34 32 31 31 33 34 34 35 35 36 36 36 36 36 35 34 33
16 16 14 13 13 13 13 13 13 14 15 15 17 18 19 21 23 24 26 27 28 29 29 29 30 30 31 31 32 32 33 34 36 36 36 37 37 37 37 37 37 38 38 38 38 38 37 36 34 33 32 32 34 34 35 36 37 37 38 38 37 36 35
15 13 11 11 12 12 12 12 14 15 16 17 18 20 22 23 25 26 28 29 30 30 31 31 31 31 31 31 32 33 35 36 37 37 37 36 36 36 36 36 37 37 37 38 38 38 37 37 37 36 34 33 33 33 34 35 37 37 38 38 38 38 37
12 10 10 10 11 12 12 14 15 16 17 19 20 21 23 25 27 28 30 31 31 31 32 32 32 32 32 32 33 35 36 36 36 36 36 36 36 36 36 37 37 37 37 37 37 37 37 36 36 36 36 35 34 33 33 33 35 36 37 38 39 39 38
9 9 10 11 13 14 14 15 16 18 19 20 22 23 25 27 28 30 31 31 32 32 32 32 33 33 33 34 35 35 36 36 36 35 36 36 37 37 37 38 38 38 38 38 38 37 37 37 36 36 36 35 35 34 34 33 34 35 36 37 39 39 38
9 10 12 13 15 15 15 17 18 19 21 22 24 26 27 28 29 30 31 32 32 33 33 34 35 35 35 36 35 35 35 35 35 36 36 37 37 37 38 39 40 39 39 39 39 38 38 38 38 37 37 36 35 34 35 34 34 35 36 37 38 39 39
11 13 14 15 16 17 18 19 20 22 23 25 26 27 28 28 29 30 31 33 34 35 35 36 36 36 37 36 36 35 35 35 36 37 37 37 37 39 40 40 40 40 40 40 40 40 40 40 39 38 37 37 36 36 35 36 36 36 36 37 38 39 39
14 15 16 16 17 19 20 21 22 24 25 26 26 27 27 28 30 31 33 34 35 36 36 36 36 37 36 36 36 35 36 36 37 38 37 38 39 40 41 41 41 41 41 41 41 41 41 40 40 40 39 38 37 36 36 37 38 39 38 38 39 40 40
16 17 18 18 19 19 21 22 23 24 25 26 27 27 29 30 32 33 34 34 35 35 36 36 36 36 36 36 36 36 37 38 38 38 38 39 40 41 42 42 42 42 42 41 41 41 41 41 41 41 41 40 39 38 37 37 38 40 41 41 40 41 42
17 17 17 18 18 19 20 22 23 24 25 27 28 29 30 31 32 33 34 34 35 35 35 35 36 36 36 36 36 37 38 38 38 38 38 40 42 43 44 44 43 43 42 43 43 43 43 43 43 43 43 43 43 42 40 39 40 40 42 43 43 42 43
16 16 17 17 19 20 22 23 25 26 27 28 29 30 31 32 33 34 34 35 35 35 35 35 35 36 36 36 37 38 39 38 38 38 40 42 44 45 45 44 44 44 44 45 45 45 45 45 45 45 45 45 45 45 45 44 43 43 43 44 44 44 44
15 16 17 19 21 23 25 26 27 27 28 29 29 30 31 32 33 34 35 35 35 35 35 35 35 36 36 37 38 39 39 38 39 40 42 44 45 45 45 44 45 45 45 46 46 46 46 46 46 46 47 47 47 47 47 46 46 46 46 45 45 46 45
17 18 20 22 24 25 26 27 27 28 28 29 29 30 31 33 34 35 35 35 34 34 35 35 36 36 37 38 39 39 39 39 40 42 45 46 46 46 46 46 46 46 46 47 47 47 47 48 48 48 48 49 49 49 48 48 48 47 47 48 48 47 47
20 21 22 24 25 26 27 27 28 28 29 29 30 31 32 34 35 35 34 34 34 35 35 36 36 37 38 38 38 38 38 40 42 44 45 45 46 46 47 47 47 47 47 47 48 48 49 49 50 50 51 51 51 51 51 50 50 49 49 49 50 50 49
22 23 24 25 26 27 28 28 29 29 30 30 31 32 33 34 34 34 34 34 34 35 36 36 36 37 38 37 36 37 39 42 43 44 45 45 46 46 46 46 47 47 48 48 49 50 50 51 51 51 51 52 52 52 52 52 52 52 51 51 51 52 51
23 23 24 26 27 28 29 29 29 30 30 31 32 33 33 33 34 34 33 33 34 35 35 36 36 37 35 34 36 39 41 43 43 44 45 45 45 45 46 47 47 48 49 49 50 51 51 51 51 52 52 52 53 53 54 54 54 54 54 53 53 53 53
23 24 25 26 28 29 29 30 30 31 31 32 32 33 33 33 33 33 32 32 34 34 35 35 34 33 33 35 39 41 42 43 44 44 45 45 45 45 46 48 49 49 50 50 50 51 51 52 52 53 53 53 54 54 54 54 54 54 54 54 54 54 55
24 25 26 27 29 30 30 31 31 31 32 32 32 32 32 32 32 31 31 32 33 34 34 33 32 32 35 39 41 42 42 43 44 44 44 44 45 46 48 49 49 50 50 50 50 51 52 53 53 53 54 54 53 53 53 53 53 53 53 53 53 53 54
25 26 27 28 30 31 31 31 32 32 32 32 32 32 32 32 31 31 31 33 34 35 35 34 34 36 39 41 41 41 42 43 43 43 44 45 46 47 48 49 49 50 50 51 51 52 53 53 53 52 52 51 51 51 51 51 51 51 51 52 52 52 52
27 28 29 30 31 32 32 32 32 33 33 32 32 32 31 31 31 31 33 34 35 36 35 36 37 39 40 40 40 41 42 42 43 44 45 47 48 48 48 49 49 50 51 52 52 52 52 51 50 50 49 49 49 49 50 50 51 51 52 52 53 53 53
29 30 31 32 32 33 33 33 33 33 33 32 32 31 30 30 31 32 34 34 35 35 35 36 38 39 39 39 40 41 41 42 44 45 46 47 48 48 48 49 49 50 51 52 51 51 49 48 47 47 48 48 48 49 50 51 51 52 53 53 54 54 54
31 31 32 33 33 33 33 33 34 33 32 32 31 30 29 30 31 32 33 33 33 34 35 36 37 37 38 39 40 41 42 44 45 46 46 47 47 48 48 49 50 50 50 50 49 49 48 47 47 47 47 48 48 49 50 52 53 53 54 54 55 55 55
32 33 33 34 33 33 33 34 34 33 32 30 29 29 30 31 31 31 31 32 33 33 34 35 36 37 38 39 40 42 43 44 45 45 46 46 47 48 49 49 50 49 48 47 47 47 46 47 47 47 48 48 49 50 52 53 54 55 55 55 55 55 55
33 33 34 34 34 33 33 34 33 32 31 29 29 30 30 30 30 30 31 31 32 33 33 34 35 37 38 39 41 42 43 44 45 45 45 46 47 48 49 49 48 47 46 45 45 45 45 46 46 47 48 50 51 52 53 54 53 54 54 54 55 57 57
34 34 34 34 34 33 33 34 33 31 30 29 29 29 29 29 29 30 30 30 31 32 33 34 36 37 38 40 41 42 43 44 44 45 45 46 47 47 47 46 45 45 44 43 43 44 44 45 46 47 49 50 51 52 53 53 53 54 55 56 57 56 52
34 34 34 35 34 33 33 33 32 30 29 29 29 28 28 29 29 29 29 30 30 31 33 34 36 37 39 40 41 42 43 44 44 45 45 46 46 45 44 44 43 43 42 42 42 43 44 45 46 48 49 50 50 50 51 53 55 57 59 59 55 46 39
35 35 35 34 34 33 33 32 30 29 29 28 28 28 28 28 28 28 29 29 30 32 33 35 36 38 39 40 41 42 43 43 44 45 45 45 44 43 42 41 41 41 41 42 42 43 44 45 46 47 48 48 49 50 52 53 55 58 58 54 46 37 33
35 35 34 34 34 33 32 30 29 28 28 28 27 27 27 27 27 28 28 29 30 32 34 35 37 38 39 40 41 42 42 43 44 44 44 43 42 41 40 40 40 41 41 42 42 43 44 45 46 46 46 48 49 51 52 54 56 56 52 45 39 35 36
35 35 34 34 33 32 31 29 28 28 28 27 27 27 27 27 27 28 28 29 31 33 34 36 37 38 39 40 41 41 41 43 43 43 42 41 40 39 39 40 40 40 41 41 42 43 44 45 45 45 46 48 49 50 51 53 56 54 46 39 36 36 39
35 35 34 33 32 31 30 28 28 27 28 27 27 27 27 27 27 28 29 30 31 33 35 36 37 38 39 40 40 40 41 42 42 41 39 38 38 38 39 39 40 40 40 41 42 43 43 44 45 46 47 47 48 49 50 53 55 51 42 36 34 36 39
35 34 33 32 31 31 30 29 28 28 28 27 27 26 26 27 27 28 29 30 32 34 35 36 37 38 38 39 39 40 41 41 40 38 37 37 37 38 38 39 39 39 40 41 42 42 43 45 46 46 46 47 47 48 50 53 53 47 39 34 33 35 38
35 33 32 31 31 30 30 29 28 28 28 27 27 26 26 26 27 28 29 31 32 34 35 36 37 37 38 38 39 40 40 39 37 36 36 36 37 37 37 37 38 38 39 40 41 42 44 45 46 47 47 47 47 48 50 53 52 45 37 33 33 35 38
33 32 31 31 31 30 29 28 28 28 28 27 26 26 26 27 27 28 29 31 32 34 35 36 36 37 37 38 38 39 38 36 35 34 35 36 36 37 37 37 37 38 39 39 41 42 44 45 46 47 47 47 48 48 49 52 52 46 39 34 33 35 38
32 31 31 31 31 30 29 28 28 28 28 27 26 26 26 27 27 28 30 31 32 33 34 35 35 36 36 37 37 36 35 33 33 33 34 35 36 36 36 37 37 37 37 39 40 42 43 45 46 47 47 47 48 48 48 51 52 49 42 36 34 35 38
32 31 31 31 31 30 29 28 28 28 28 27 27 26 27 27 28 28 29 31 32 33 34 34 34 34 35 35 35 34 32 31 32 33 34 35 35 36 36 36 35 36 36 38 40 41 42 44 45 46 47 47 47 47 47 49 52 50 43 36 34 35 37
32 31 31 31 31 30 29 28 28 28 28 27 27 27 27 27 28 28 29 30 31 32 33 33 33 33 34 34 33 32 31 30 31 32 33 34 35 35 35 35 34 35 36 37 39 40 41 43 45 46 47 47 46 46 46 48 51 50 43 36 35 35 37
32 31 31 32 31 30 29 28 28 29 28 28 27 27 27 27 28 28 29 30 31 32 32 31 32 33 33 33 31 30 29 30 31 32 33 34 35 35 34 34 34 34 35 37 38 40 41 42 44 46 46 47 46 46 46 46 49 50 46 41 37 35 37
Wind_Direction
254 272 280 279 278 281 285 290 293 296 301 305 307 309 309 310 311 312 312 311 310 310 310 311 312 312 313 313 313 314 315 316 316 316 316 316 315 315 315 315 314 313 311 309 308 307 307 306 306 305 303 301 299 298 296 294 292 290 289 287 285 283 282
267 274 278 279 281 286 290 294 297 301 306 308 309 311 312 312 312 311 310 309 308 308 309 310 311 311 312 312 312 313 314 315 315 315 315 316 316 316 316 316 315 314 313 312 310 309 307 307 307 307 305 303 301 299 297 295 293 291 290 288 286 283 281
271 273 277 279 282 287 292 296 301 305 307 309 310 311 311 310 309 308 308 307 308 308 309 310 310 310 311 311 311 312 313 313 314 315 316 316 316 316 316 316 315 315 314 314 312 311 310 308 308 307 306 305 303 301 298 296 294 292 291 289 287 285 283
267 272 274 277 282 288 294 300 303 305 306 307 308 308 307 307 306 306 307 307 307 308 308 308 309 310 310 310 310 311 312 313 314 315 315 315 315 315 315 315 315 314 314 313 312 311 310 309 308 307 306 305 303 301 299 297 294 293 292 290 289 287 285
271 277 281 286 292 295 299 301 302 304 305 305 306 305 305 305 305 306 306 306 307 307 307 308 308 309 309 310 311 312 313 313 313 314 314 314 314 315 316 315 315 315 314 313 312 311 310 308 307 305 304 303 302 301 300 298 295 293 291 290 289 288 286
280 285 288 291 293 295 298 299 300 302 302 302 303 303 304 304 304 305 305 306 306 306 307 308 308 309 310 311 312 313 313 312 312 312 313 314 314 315 316 315 315 315 314 313 312 311 310 308 306 304 303 301 301 300 299 298 297 294 292 291 290 289 287
276 279 282 285 289 293 295 297 298 299 299 299 300 302 303 304 304 305 305 305 305 306 307 308 309 310 311 312 312 312 312 312 312 312 313 314 314 315 315 315 315 314 313 313 311 310 308 306 304 302 300 299 298 298 297 296 295 293 292 290 289 289 288
277 280 284 287 290 292 294 295 296 296 297 298 300 302 303 304 304 304 304 304 305 306 307 308 309 310 311 312 312 312 312 312 312 313 314 314 314 314 315 315 314 313 312 311 310 308 307 305 303 301 299 297 295 295 295 295 294 292 291 290 289 287 287
280 284 288 289 290 292 294 295 295 297 298 300 302 303 303 303 303 303 303 304 305 306 307 308 309 310 311 311 311 312 312 312 313 313 313 314 314 314 314 314 313 312 311 310 309 308 306 304 303 301 299 297 295 292 291 291 291 291 290 289 288 287 286
283 285 288 291 293 295 296 297 298 300 301 302 303 303 303 302 302 302 303 305 306 307 308 309 310 310 311 311 311 312 312 312 312 313 313 313 314 314 313 313 312 312 312 311 310 308 307 305 304 302 301 299 297 295 292 290 289 288 287 287 286 285 284
287 290 294 297 299 300 300 301 302 303 303 303 303 303 303 302 303 304 305 306 308 309 309 310 310 310 310 310 311 311 312 312 312 312 313 313 314 314 313 313 313 312 312 311 310 308 307 306 305 304 302 301 299 298 295 293 292 289 287 286 285 283 282
291 296 300 302 302 302 302 302 303 304 304 304 303 304 303 304 305 305 306 307 308 309 310 310 310 310 310 310 311 312 312 312 311 312 313 313 313 313 313 313 312 312 311 310 309 308 306 306 305 303 302 301 300 298 297 295 293 291 289 286 285 283 281
296 299 302 302 302 302 302 303 304 304 304 305 305 305 305 305 305 305 306 307 308 309 309 309 310 310 310 311 312 312 312 311 311 312 312 312 312 312 313 313 312 311 310 309 308 307 306 306 305 304 303 302 301 299 298 296 294 292 291 289 287 285 283
298 301 302 303 302 302 303 304 305 305 306 306 306 305 304 304 304 305 306 307 308 308 308 309 310 310 311 312 311 311 311 311 310 310 311 312 312 312 312 311 310 310 309 308 308 307 307 307 306 305 304 303 303 301 299 298 295 293 292 290 288 287 285
299 301 302 303 303 303 304 304 305 305 306 306 305 304 304 303 304 305 306 307 307 308 308 309 310 310 311 310 310 310 310 310 310 310 311 312 312 311 311 310 310 309 309 309 309 308 308 307 307 306 305 304 303 301 300 298 296 294 292 291 289 287 286
297 299 301 302 303 303 304 304 304 304 304 304 304 303 303 304 304 305 306 307 308 309 309 309 309 309 309 309 309 310 311 311 311 311 312 312 311 311 310 310 310 310 310 310 310 309 308 307 306 305 305 304 303 301 300 298 297 295 293 291 290 287 286
295 298 300 302 302 303 303 303 303 303 303 303 303 303 303 304 305 307 308 310 311 311 310 309 309 309 309 309 311 311 312 312 312 312 312 311 311 311 311 311 311 311 311 310 310 309 308 308 307 307 306 305 304 303 302 300 299 297 295 293 292 290 288
295 297 299 301 302 302 302 302 302 302 302 303 303 303 303 304 307 309 311 312 312 312 311 310 309 310 311 311 312 312 312 312 311 311 311 311 312 312 312 312 312 312 311 311 311 310 310 310 309 308 308 307 306 305 304 303 301 300 298 296 295 294 291
294 297 300 301 301 302 302 303 302 302 302 303 303 304 304 306 309 311 312 313 312 311 310 310 309 311 312 313 313 313 312 311 311 311 312 312 313 313 313 313 313 312 312 312 312 312 312 311 311 310 309 308 308 307 306 305 304 302 301 300 298 296 294
296 299 301 302 302 303 303 303 302 302 303 303 304 305 306 308 311 312 312 312 311 310 309 308 309 311 313 314 313 312 311 312 312 313 314 314 314 314 314 314 314 314 314 314 313 313 313 313 312 311 311 310 309 309 308 307 306 305 303 302 300 298 296
297 299 301 302 302 303 303 302 302 302 303 304 305 306 308 310 312 313 312 312 311 309 308 308 310 312 314 313 312 312 313 314 315 315 315 315 315 315 315 315 315 315 315 315 315 315 314 314 314 314 313 313 312 311 310 309 308 307 305 304 302 300 298
296 298 300 301 301 302 302 302 302 302 303 305 306 308 309 311 312 312 312 312 311 310 310 311 312 313 313 313 313 314 315 316 315 315 315 315 315 316 316 317 317 317 317 317 317 318 318 318 317 316 316 315 314 313 313 311 311 309 308 307 305 303 302
294 297 299 300 300 301 301 301 301 302 304 306 307 308 309 311 312 312 312 312 312 312 312 313 313 313 314 314 315 316 316 315 315 315 315 316 316 317 318 318 319 319 320 320 320 321 320 320 320 319 318 318 317 317 316 315 314 312 311 309 307 306 304
292 296 298 298 299 300 300 300 300 301 304 306 307 308 309 311 311 311 312 312 312 313 313 313 313 314 315 316 317 316 315 315 315 316 317 318 319 320 320 321 321 321 322 322 322 322 322 322 322 322 322 321 321 320 318 317 315 313 312 311 310 308 306
291 294 296 297 298 299 298 298 299 301 304 305 306 308 309 310 310 310 312 312 312 312 312 313 315 316 317 317 316 316 316 316 317 318 319 320 321 322 322 323 323 323 324 324 324 324 324 324 324 324 325 324 323 321 320 319 318 317 316 315 314 312 309
289 292 295 296 297 297 297 297 298 300 302 304 305 307 308 308 309 311 311 311 311 312 314 315 317 317 317 317 316 316 317 317 319 320 321 322 323 323 324 325 325 325 325 326 326 326 326 326 327 327 326 325 324 323 323 324 323 323 321 320 318 315 311
289 292 294 295 295 295 295 296 298 300 301 303 304 305 306 308 309 310 310 310 312 314 316 317 317 317 317 317 317 317 318 319 320 321 322 324 325 325 326 326 326 327 327 327 328 328 329 330 330 328 327 327 327 328 328 328 328 327 325 322 320 317 312
288 290 292 292 293 293 294 296 298 299 301 302 303 304 306 307 308 309 309 311 313 316 317 317 317 317 317 317 318 319 320 321 322 323 324 325 326 327 327 328 328 328 329 329 330 331 332 332 330 329 331 332 332 332 331 332 332 331 328 323 321 318 314
287 289 290 290 291 292 294 295 297 299 300 300 302 304 305 307 308 308 309 312 315 317 318 318 317 317 317 318 319 320 321 322 323 325 326 327 328 329 329 330 330 330 331 331 333 334 334 332 332 334 336 336 335 335 335 336 337 334 330 326 323 320 318
285 287 288 289 291 293 294 295 296 297 298 299 301 303 305 306 307 307 310 313 316 317 318 317 317 318 318 319 321 322 323 324 325 327 328 329 330 331 331 331 331 332 333 335 336 335 334 335 338 340 340 338 337 337 339 341 340 335 331 329 327 325 324
284 286 287 290 292 293 294 293 294 295 297 298 300 302 304 305 305 307 311 314 316 317 317 317 317 318 319 321 322 323 325 326 327 328 330 331 332 332 333 333 333 334 337 338 337 336 338 341 342 341 341 340 339 340 343 344 342 337 332 330 329 328 326
283 285 287 290 292 293 293 292 292 294 296 297 299 300 302 303 305 308 311 314 316 316 316 317 318 319 321 322 324 325 326 327 329 330 332 333 334 334 334 334 336 338 339 338 337 340 343 344 343 342 342 342 342 344 347 347 344 340 334 330 330 331 330
282 285 288 290 292 293 292 291 291 293 295 296 297 299 300 302 304 308 312 314 315 315 316 317 319 320 322 323 325 326 327 328 330 332 334 335 336 336 336 338 340 340 338 338 341 345 346 345 344 344 344 344 346 348 350 350 348 343 336 332 333 334 334
281 285 288 291 293 293 292 291 291 293 294 294 295 297 299 301 305 309 311 313 314 315 317 318 320 322 323 324 326 327 328 330 332 334 336 338 338 338 339 341 341 339 339 342 346 348 348 347 346 346 346 347 349 351 352 353 352 347 339 334 335 336 338
281 284 288 291 293 294 292 291 291 292 293 293 294 296 298 301 305 308 310 311 313 316 317 319 320 322 323 325 326 327 329 331 334 336 338 339 340 341 342 342 340 339 341 345 348 349 348 348 349 349 350 351 352 354 355 356 355 351 343 337 337 340 342
279 284 287 291 293 294 292 291 291 291 292 292 293 295 297 301 304 306 308 311 314 316 318 319 320 322 324 325 327 328 331 333 336 338 340 341 342 343 343 341 340 341 344 347 349 349 349 350 352 353 353 353 354 355 357 358 358 354 349 344 343 344 347
278 283 287 290 292 293 292 290 290 290 290 290 291 294 297 300 303 305 308 311 314 316 317 318 320 322 325 326 328 330 333 335 337 340 341 342 344 344 342 342 342 344 346 348 349 348 349 351 353 355 356 356 356 356 359 1 0 358 356 352 348 348 351
Height
5832 5833 5833 5834 5834 5833 5833 5832 5832 5832 5832 5831 5830 5830 5829 5829 5828 5828 5827 5827 5826 5825 5825 5824 5822 5821 5820 5818 5817 5815 5813 5811 5809 5807 5805 5803 5800 5798 5796 5794 5792 5790 5789 5788 5786 5785 5785 5783 5780 5778 5775 5772 5770 5769 5767 5765 5764 5762 5761 5761 5761 5761 5761
5830 5831 5831 5831 5831 5831 5830 5830 5830 5830 5829 5828 5828 5827 5827 5826 5826 5825 5825 5824 5823 5823 5822 5821 5820 5819 5817 5816 5814 5812 5810 5808 5806 5804 5802 5800 5797 5795 5793 5791 5788 5786 5784 5782 5781 5779 5778 5777 5776 5774 5771 5768 5765 5764 5763 5761 5758 5757 5756 5755 5756 5756 5756
5829 5829 5829 5829 5829 5829 5829 5828 5828 5827 5827 5826 5825 5825 5824 5824 5824 5823 5823 5822 5821 5820 5819 5818 5817 5816 5815 5813 5811 5809 5807 5805 5803 5801 5799 5796 5794 5792 5790 5787 5785 5783 5781 5779 5777 5775 5773 5772 5770 5769 5767 5765 5762 5760 5759 5757 5754 5752 5751 5750 5749 5749 5750
5827 5827 5827 5827 5827 5827 5827 5826 5826 5825 5825 5824 5824 5823 5823 5822 5822 5821 5820 5819 5818 5817 5816 5815 5814 5813 5811 5810 5808 5806 5804 5802 5799 5797 5795 5793 5791 5789 5786 5784 5782 5779 5777 5775 5773 5771 5770 5768 5766 5764 5763 5761 5759 5756 5754 5753 5750 5748 5746 5745 5743 5743 5744
5825 5825 5825 5825 5824 5824 5824 5824 5823 5823 5823 5822 5822 5821 5821 5820 5819 5818 5818 5817 5816 5814 5813 5812 5811 5809 5808 5806 5804 5802 5800 5798 5796 5794 5792 5790 5787 5785 5783 5780 5778 5776 5773 5771 5769 5767 5765 5764 5762 5760 5759 5757 5755 5752 5750 5748 5746 5744 5742 5740 5738 5738 5738
5822 5823 5823 5823 5822 5822 5822 5822 5821 5821 5821 5820 5820 5819 5819 5818 5817 5816 5815 5814 5813 5811 5810 5809 5807 5805 5804 5802 5800 5798 5796 5795 5793 5791 5788 5786 5784 5781 5779 5776 5774 5772 5769 5767 5765 5763 5761 5759 5757 5756 5754 5752 5750 5748 5746 5743 5741 5740 5738 5736 5734 5732 5732
5821 5821 5821 5821 5821 5821 5820 5820 5820 5819 5819 5818 5818 5817 5816 5815 5814 5813 5812 5811 5809 5808 5806 5805 5803 5801 5800 5798 5796 5795 5793 5791 5789 5787 5785 5782 5780 5778 5775 5773 5770 5768 5765 5763 5760 5758 5756 5754 5752 5751 5750 5748 5746 5744 5742 5739 5737 5735 5734 5731 5729 5728 5727
5819 5819 5819 5819 5819 5819 5818 5818 5818 5817 5817 5816 5815 5814 5813 5813 5812 5810 5809 5807 5806 5804 5803 5801 5799 5798 5796 5794 5793 5791 5789 5787 5785 5783 5780 5778 5776 5774 5771 5769 5766 5763 5761 5758 5756 5754 5751 5749 5747 5745 5744 5744 5742 5740 5738 5735 5731 5729 5728 5727 5724 5723 5722
5817 5817 5817 5817 5817 5817 5816 5816 5815 5815 5814 5813 5812 5811 5810 5810 5808 5807 5806 5804 5802 5801 5799 5797 5796 5794 5792 5791 5789 5787 5785 5783 5781 5779 5776 5774 5772 5770 5767 5764 5762 5759 5756 5754 5751 5749 5746 5744 5742 5740 5738 5737 5736 5735 5734 5732 5728 5725 5723 5721 5719 5717 5716
5815 5815 5815 5815 5814 5814 5814 5813 5813 5812 5811 5810 5809 5808 5807 5806 5805 5804 5802 5800 5799 5797 5795 5794 5792 5790 5789 5787 5785 5783 5781 5779 5777 5775 5772 5770 5768 5765 5763 5760 5757 5754 5751 5749 5746 5743 5741 5738 5736 5733 5731 5730 5728 5727 5727 5726 5723 5721 5718 5715 5713 5712 5710
5813 5812 5812 5812 5812 5812 5811 5811 5810 5809 5808 5807 5806 5805 5804 5803 5802 5800 5798 5796 5795 5793 5791 5790 5788 5787 5785 5783 5782 5780 5777 5775 5773 5771 5768 5766 5763 5760 5758 5755 5752 5749 5746 5744 5741 5738 5735 5732 5730 5727 5725 5722 5721 5719 5717 5717 5715 5713 5712 5709 5707 5706 5705
5810 5810 5810 5810 5810 5810 5809 5808 5807 5806 5805 5804 5803 5802 5801 5799 5798 5796 5794 5793 5791 5789 5788 5786 5785 5783 5782 5780 5778 5776 5773 5771 5769 5767 5764 5762 5759 5756 5753 5751 5747 5744 5742 5739 5736 5733 5730 5727 5724 5721 5719 5716 5714 5712 5710 5708 5706 5704 5703 5701 5699 5698 5697
5809 5809 5809 5808 5808 5807 5806 5805 5804 5803 5802 5801 5800 5799 5797 5796 5794 5792 5790 5789 5787 5786 5784 5783 5781 5780 5778 5776 5774 5772 5769 5767 5765 5763 5760 5757 5754 5751 5748 5746 5743 5740 5737 5734 5731 5727 5724 5721 5718 5715 5712 5709 5706 5705 5702 5700 5699 5697 5694 5692 5690 5689 5688
5806 5806 5806 5806 5805 5804 5803 5802 5801 5800 5799 5798 5797 5795 5794 5792 5790 5788 5787 5785 5784 5782 5781 5779 5778 5776 5774 5772 5770 5768 5766 5763 5761 5758 5756 5753 5750 5746 5743 5741 5738 5735 5732 5729 5725 5722 5718 5715 5712 5709 5706 5702 5699 5697 5695 5692 5691 5689 5687 5684 5681 5679 5678
5804 5804 5803 5803 5802 5801 5800 5799 5798 5797 5796 5795 5793 5792 5790 5788 5786 5785 5783 5782 5780 5779 5777 5775 5773 5771 5769 5768 5766 5764 5762 5759 5757 5754 5752 5749 5745 5742 5739 5736 5732 5730 5727 5723 5720 5716 5713 5709 5706 5702 5699 5696 5693 5689 5687 5685 5682 5680 5679 5676 5673 5671 5669
5802 5802 5801 5800 5799 5798 5797 5796 5795 5794 5793 5791 5790 5788 5786 5784 5783 5781 5780 5778 5777 5775 5773 5771 5769 5767 5765 5764 5762 5760 5758 5755 5752 5750 5747 5744 5741 5737 5734 5731 5727 5724 5721 5718 5714 5710 5706 5703 5700 5696 5693 5689 5686 5683 5679 5676 5674 5672 5669 5667 5664 5661 5660
5800 5799 5798 5798 5797 5796 5795 5793 5792 5791 5789 5787 5786 5784 5783 5781 5779 5778 5776 5775 5773 5771 5769 5767 5765 5763 5762 5760 5758 5756 5753 5751 5748 5745 5742 5740 5736 5733 5729 5726 5722 5719 5715 5712 5708 5704 5700 5697 5693 5689 5686 5682 5679 5675 5672 5668 5665 5663 5660 5658 5655 5652 5649
5797 5797 5796 5795 5794 5793 5791 5790 5789 5787 5785 5784 5782 5780 5779 5777 5776 5774 5773 5771 5769 5767 5765 5764 5762 5760 5759 5757 5754 5751 5749 5746 5743 5741 5738 5735 5732 5728 5725 5721 5717 5713 5710 5706 5702 5698 5694 5690 5687 5683 5679 5675 5671 5668 5664 5661 5657 5654 5652 5649 5646 5644 5640
5794 5793 5793 5792 5790 5789 5788 5786 5785 5783 5782 5780 5778 5777 5775 5774 5772 5771 5769 5767 5766 5764 5762 5761 5759 5757 5755 5753 5750 5748 5745 5742 5739 5736 5733 5730 5727 5724 5720 5716 5711 5707 5704 5700 5697 5692 5688 5684 5680 5676 5672 5668 5665 5661 5657 5654 5650 5647 5644 5641 5638 5635 5632
5791 5790 5789 5788 5787 5785 5784 5783 5781 5780 5778 5776 5775 5773 5772 5770 5769 5767 5765 5764 5762 5761 5759 5757 5756 5753 5751 5749 5746 5744 5741 5738 5735 5732 5728 5725 5722 5718 5715 5711 5706 5702 5698 5694 5691 5687 5683 5679 5674 5670 5666 5662 5658 5654 5650 5647 5643 5640 5636 5633 5630 5627 5624
5787 5786 5785 5784 5783 5782 5780 5779 5778 5776 5774 5773 5771 5770 5768 5767 5765 5764 5762 5760 5759 5757 5756 5754 5752 5750 5748 5745 5743 5740 5737 5734 5731 5727 5724 5720 5717 5713 5709 5706 5702 5697 5692 5688 5684 5681 5677 5673 5669 5664 5660 5656 5652 5648 5644 5640 5636 5632 5628 5625 5621 5618 5614
5784 5783 5782 5781 5780 5778 5777 5776 5774 5773 5771 5769 5768 5767 5765 5764 5762 5760 5759 5757 5756 5754 5753 5751 5749 5747 5744 5742 5739 5736 5733 5730 5727 5723 5719 5716 5713 5708 5704 5700 5696 5692 5687 5683 5678 5674 5670 5666 5662 5658 5654 5650 5646 5642 5637 5633 5628 5624 5620 5616 5612 5609 5605
5780 5780 5779 5778 5776 5775 5774 5772 5771 5769 5768 5766 5765 5763 5762 5761 5759 5757 5756 5754 5753 5751 5749 5747 5745 5743 5741 5738 5735 5732 5729 5726 5723 5719 5715 5711 5708 5704 5699 5695 5691 5687 5682 5678 5673 5669 5664 5660 5656 5652 5648 5644 5639 5635 5631 5626 5621 5616 5612 5608 5604 5599 5596
5777 5777 5776 5774 5773 5772 5770 5769 5767 5766 5764 5763 5762 5760 5759 5757 5756 5755 5753 5751 5750 5748 5746 5744 5742 5740 5737 5735 5732 5729 5726 5722 5719 5715 5711 5706 5702 5698 5694 5690 5686 5682 5678 5674 5669 5664 5660 5656 5651 5647 5642 5638 5633 5628 5624 5619 5615 5610 5605 5601 5596 5590 5586
5774 5773 5772 5771 5770 5768 5767 5765 5764 5763 5761 5760 5758 5757 5756 5755 5753 5752 5750 5749 5747 5745 5743 5741 5739 5737 5734 5731 5728 5725 5722 5719 5715 5711 5707 5702 5698 5694 5690 5686 5681 5678 5674 5670 5666 5661 5656 5652 5647 5642 5638 5633 5628 5623 5617 5612 5607 5602 5597 5592 5587 5581 5575
5771 5770 5769 5768 5766 5765 5764 5762 5761 5759 5758 5757 5756 5754 5753 5752 5750 5749 5748 5746 5745 5743 5741 5738 5736 5733 5731 5728 5725 5722 5718 5714 5711 5707 5702 5698 5694 5690 5686 5682 5677 5674 5670 5666 5662 5658 5653 5648 5643 5638 5634 5629 5624 5618 5612 5606 5600 5594 5588 5582 5577 5572 5568
5767 5766 5765 5764 5763 5762 5760 5759 5758 5756 5755 5754 5753 5752 5750 5749 5748 5746 5745 5743 5742 5740 5737 5735 5733 5730 5727 5724 5721 5718 5714 5710 5706 5702 5698 5694 5690 5686 5682 5678 5674 5670 5666 5662 5658 5654 5650 5645 5640 5635 5630 5625 5619 5613 5607 5602 5595 5588 5580 5574 5570 5567 5563
5764 5763 5762 5761 5760 5758 5757 5756 5755 5753 5752 5751 5750 5749 5748 5747 5745 5744 5742 5741 5739 5737 5734 5732 5730 5727 5724 5721 5718 5714 5710 5706 5702 5698 5694 5690 5686 5682 5679 5675 5671 5667 5663 5659 5655 5650 5646 5641 5637 5632 5626 5620 5615 5609 5603 5597 5590 5583 5576 5569 5565 5563 5560
5760 5759 5758 5757 5756 5755 5754 5753 5752 5751 5750 5749 5747 5746 5745 5744 5742 5741 5739 5738 5736 5733 5731 5729 5726 5724 5721 5717 5714 5710 5707 5703 5698 5694 5691 5687 5683 5679 5675 5671 5667 5664 5660 5656 5651 5647 5642 5638 5633 5628 5623 5617 5611 5605 5599 5593 5585 5577 5571 5566 5563 5559 5555
5756 5756 5755 5754 5753 5752 5751 5750 5749 5748 5747 5746 5744 5743 5742 5741 5740 5738 5736 5735 5733 5730 5728 5726 5723 5720 5717 5714 5710 5707 5703 5699 5695 5691 5687 5684 5680 5676 5672 5668 5665 5661 5657 5652 5648 5644 5640 5635 5630 5625 5620 5614 5609 5603 5597 5590 5582 5574 5568 5563 5560 5556 5552
5753 5752 5751 5751 5750 5749 5748 5747 5746 5745 5744 5743 5741 5740 5739 5738 5737 5735 5733 5731 5729 5727 5725 5722 5720 5717 5714 5710 5707 5703 5699 5695 5692 5688 5684 5681 5677 5673 5669 5666 5662 5658 5654 5649 5645 5641 5636 5631 5626 5622 5617 5612 5606 5600 5594 5587 5580 5572 5566 5561 5557 5553 5549
5750 5749 5748 5747 5746 5745 5745 5744 5743 5742 5741 5740 5738 5737 5736 5735 5734 5732 5730 5728 5726 5724 5722 5719 5716 5713 5710 5707 5703 5699 5696 5692 5689 5685 5681 5678 5674 5671 5667 5663 5659 5655 5651 5647 5643 5638 5633 5628 5624 5619 5614 5609 5603 5597 5591 5584 5576 5569 5563 5559 5555 5550 5546
5746 5745 5745 5744 5743 5742 5742 5741 5740 5739 5738 5737 5735 5734 5733 5732 5731 5729 5727 5726 5723 5721 5719 5716 5713 5710 5707 5703 5700 5696 5693 5689 5686 5683 5679 5675 5672 5668 5664 5660 5656 5652 5649 5645 5640 5635 5630 5626 5621 5616 5611 5606 5600 5594 5588 5581 5573 5566 5561 5556 5552 5547 5542
5743 5742 5742 5741 5740 5739 5738 5737 5737 5736 5735 5733 5732 5731 5730 5729 5728 5726 5724 5722 5720 5718 5715 5713 5710 5707 5704 5700 5697 5693 5690 5687 5684 5680 5677 5673 5670 5666 5662 5658 5654 5651 5647 5642 5638 5633 5629 5624 5620 5615 5609 5603 5597 5592 5586 5579 5572 5565 5559 5554 5550 5545 5540
5739 5739 5738 5738 5737 5736 5735 5734 5733 5732 5731 5730 5729 5728 5727 5726 5725 5723 5721 5719 5717 5715 5712 5710 5707 5704 5701 5698 5694 5691 5688 5685 5681 5678 5674 5671 5667 5664 5660 5657 5653 5649 5645 5641 5636 5632 5628 5623 5619 5613 5608 5602 5596 5591 5585 5578 5571 5564 5558 5553 5548 5543 5538
5736 5735 5735 5734 5733 5732 5732 5731 5730 5729 5728 5727 5726 5725 5724 5723 5721 5720 5718 5716 5714 5712 5709 5707 5704 5701 5698 5695 5692 5689 5686 5682 5679 5676 5672 5669 5665 5662 5659 5655 5652 5648 5643 5639 5635 5631 5627 5622 5617 5612 5607 5601 5596 5590 5585 5578 5571 5564 5558 5552 5547 5542 5536
5732 5732 5731 5730 5730 5729 5728 5727 5727 5726 5725 5724 5723 5722 5721 5720 5718 5717 5715 5714 5711 5709 5707 5704 5702 5699 5695 5692 5689 5686 5683 5680 5677 5674 5671 5667 5664 5660 5657 5654 5650 5646 5642 5637 5633 5630 5625 5621 5616 5611 5606 5601 5596 5590 5584 5578 5572 5565 5557 5551 5545 5540 5535